Chennai, India

3:40 AM IST on April 27, 2017 (GMT +0530)
Chennai International

Weather History for VOMM - September, 2012

Change the Weather History Date:

Saturday, September 22, 2012

  Actual Average Record
Temperature  
Mean Temperature 86 °F -  
Max Temperature 95 °F 86 °F 96 °F (1998)
Min Temperature 77 °F 75 °F 74 °F (2016)
Cooling Degree Days 21    
Growing Degree Days 36 (Base 50)    
Moisture  
Dew Point 77 °F    
Average Humidity 77    
Maximum Humidity 94    
Minimum Humidity 53    
Precipitation  
Precipitation 0.00 in 0.42 in - ()
Sea Level Pressure  
Sea Level Pressure 29.76 in    
Wind  
Wind Speed 6 mph ()    
Max Wind Speed 12 mph    
Max Gust Speed -    
Visibility 4.0 miles    
Events      
Averages and records for this station are not official NWS values.
T = Trace of Precipitation, MM = Missing Value Source: Averaged Metar Reports

Daily Weather History Graph

Daily Weather History Graph

Search for Another Location

Airport or City:

Trip Planner

Search our weather history database for the weather conditions in past years. The results will help you decide how hot, cold, wet, or windy it might be!

Date:

Astronomy

Sep. 22, 2012 Rise Set
Actual Time 5:58 AM IST 6:05 PM IST
Civil Twilight 5:37 AM IST 6:26 PM IST
Nautical Twilight 5:12 AM IST 6:51 PM IST
Astronomical Twilight 4:47 AM IST 7:15 PM IST
Moon 11:51 AM IST (9/22) 11:37 PM IST (9/22)
Length of Visible Light 12h 49m
Length of Day
12h 06m
Waxing Crescent, 44% of the Moon is Illuminated
Sep 22
Waxing Crescent
Sep 23
First Quarter
Sep 30
Full
Oct 8
Last Quarter
Oct 15
New

Hourly Weather History & Observations

Time (IST) Temp. Heat Index Dew Point Humidity Pressure Visibility Wind Dir Wind Speed Gust Speed Precip Events Conditions
12:10 AM 82.4 °F 92.4 °F 78.8 °F 89% 29.77 in 3.7 mi South 3.5 mph - N/A   Partly Cloudy
12:40 AM 82.4 °F 92.4 °F 78.8 °F 89% 29.77 in 3.7 mi SSW 3.5 mph - N/A   Partly Cloudy
1:10 AM 82.4 °F 92.4 °F 78.8 °F 89% 29.77 in 3.7 mi South 3.5 mph - N/A   Partly Cloudy
1:40 AM 82.4 °F 92.4 °F 78.8 °F 89% 29.74 in 3.7 mi South 3.5 mph - N/A   Partly Cloudy
2:10 AM 82.4 °F 92.4 °F 78.8 °F 89% 29.74 in 3.7 mi South 4.6 mph - N/A   Partly Cloudy
2:30 AM 81 °F - 78 °F 90% 29.78 in 2 mi SSE 2.3 mph - -   Scattered Clouds
2:40 AM 82.4 °F 92.4 °F 78.8 °F 89% 29.74 in 3.7 mi South 4.6 mph - N/A   Partly Cloudy
3:10 AM 82.4 °F 92.4 °F 78.8 °F 89% 29.74 in 3.7 mi SSW 5.8 mph - N/A   Partly Cloudy
3:40 AM 82.4 °F 92.4 °F 78.8 °F 89% 29.74 in 3.7 mi South 4.6 mph - N/A   Partly Cloudy
4:10 AM 80.6 °F 88.1 °F 78.8 °F 94% 29.74 in 3.7 mi South 6.9 mph - N/A   Partly Cloudy
4:40 AM 80.6 °F 87.1 °F 77.0 °F 89% 29.77 in 3.7 mi SSW 8.1 mph - N/A   Scattered Clouds
5:10 AM 80.6 °F 87.1 °F 77.0 °F 89% 29.77 in 3.7 mi SSW 6.9 mph - N/A   Scattered Clouds
5:30 AM 80 °F - 76 °F 83% 29.81 in 2 mi SSW 4.6 mph - -   Scattered Clouds
5:40 AM 80.6 °F 86.2 °F 75.2 °F 84% 29.77 in 3.7 mi SSW 6.9 mph - N/A   Scattered Clouds
6:10 AM 80.6 °F 86.2 °F 75.2 °F 84% 29.80 in 3.7 mi Variable 3.5 mph - N/A   Mostly Cloudy
6:40 AM 80.6 °F 86.2 °F 75.2 °F 84% 29.80 in 3.7 mi SSW 5.8 mph - N/A   Mostly Cloudy
7:10 AM 80.6 °F 86.2 °F 75.2 °F 84% 29.83 in 3.7 mi SW 6.9 mph - N/A   Mostly Cloudy
7:40 AM 82.4 °F 89.5 °F 75.2 °F 79% 29.83 in 3.7 mi SSW 9.2 mph - N/A   Mostly Cloudy
8:10 AM 82.4 °F 89.5 °F 75.2 °F 79% 29.83 in 3.7 mi SSW 9.2 mph - N/A   Mostly Cloudy
8:30 AM 83 °F - 75 °F 72% 29.87 in 6 mi West 2.3 mph - -   Partly Cloudy
8:40 AM 84.2 °F 92.3 °F 75.2 °F 74% 29.83 in 3.7 mi SW 11.5 mph - N/A   Mostly Cloudy
9:10 AM 86.0 °F 95.1 °F 75.2 °F 70% 29.83 in 3.7 mi SW 9.2 mph - N/A   Scattered Clouds
9:40 AM 86.0 °F 95.1 °F 75.2 °F 70% 29.83 in 4.3 mi WSW 9.2 mph - N/A   Scattered Clouds
10:10 AM 87.8 °F 99.7 °F 77.0 °F 70% 29.83 in 4.3 mi SW 9.2 mph - N/A   Scattered Clouds
10:40 AM 87.8 °F 97.6 °F 75.2 °F 66% 29.83 in 5.0 mi SW 9.2 mph - N/A   Partly Cloudy
11:10 AM 89.6 °F 102.2 °F 77.0 °F 66% 29.80 in 5.0 mi South 4.6 mph - N/A   Partly Cloudy
11:30 AM 90 °F - 78 °F 60% 29.83 in 6 mi West 2.3 mph - -   Scattered Clouds
11:40 AM 89.6 °F 102.2 °F 77.0 °F 66% 29.80 in 5.0 mi SSW 9.2 mph - N/A   Partly Cloudy
12:10 PM 91.4 °F 102.5 °F 75.2 °F 59% 29.77 in 6.2 mi SW 9.2 mph - N/A   Scattered Clouds
12:40 PM 91.4 °F 102.5 °F 75.2 °F 59% 29.74 in 6.2 mi SW 11.5 mph - N/A   Scattered Clouds
1:10 PM 93.2 °F 105.0 °F 75.2 °F 56% 29.74 in 6.2 mi WSW 9.2 mph - N/A   Scattered Clouds
1:40 PM 93.2 °F 105.0 °F 75.2 °F 56% 29.71 in 5.0 mi West 5.8 mph - N/A   Scattered Clouds
2:10 PM 95.0 °F 107.4 °F 75.2 °F 53% 29.71 in 5.0 mi WSW 9.2 mph - N/A   Scattered Clouds
2:30 PM 93 °F - 80 °F 58% 29.73 in 6 mi East 4.6 mph - -   Mostly Cloudy
2:40 PM 95.0 °F 109.7 °F 77.0 °F 56% 29.68 in 3.7 mi West 6.9 mph - N/A   Partly Cloudy
3:10 PM 93.2 °F 110.2 °F 78.8 °F 63% 29.68 in 4.3 mi ESE 9.2 mph - N/A   Partly Cloudy
3:40 PM 91.4 °F 107.2 °F 78.8 °F 66% 29.68 in 4.3 mi SE 9.2 mph - N/A   Partly Cloudy
4:10 PM 91.4 °F 111.0 °F 80.6 °F 71% 29.68 in 4.3 mi SE 9.2 mph - N/A   Partly Cloudy
4:40 PM 89.6 °F 104.7 °F 78.8 °F 70% 29.68 in 3.7 mi ESE 9.2 mph - N/A   Partly Cloudy
5:10 PM 89.6 °F 104.7 °F 78.8 °F 70% 29.68 in 3.7 mi SE 9.2 mph - N/A   Partly Cloudy
5:30 PM 87 °F - 79 °F 71% 29.72 in 6 mi SE 3.5 mph - -   Scattered Clouds
5:40 PM 87.8 °F 102.5 °F 78.8 °F 75% 29.68 in 3.7 mi SSE 6.9 mph - N/A   Partly Cloudy
6:10 PM 86.0 °F 99.3 °F 78.8 °F 79% 29.71 in 3.7 mi SSE 5.8 mph - N/A   Partly Cloudy
6:40 PM 86.0 °F 96.9 °F 77.0 °F 74% 29.71 in 3.7 mi SSE 8.1 mph - N/A   Partly Cloudy
7:10 PM 86.0 °F 96.9 °F 77.0 °F 74% 29.74 in 3.7 mi South 4.6 mph - N/A   Partly Cloudy
7:40 PM 84.2 °F 94.1 °F 77.0 °F 79% 29.74 in 3.7 mi South 4.6 mph - N/A   Partly Cloudy
8:10 PM 84.2 °F 96.1 °F 78.8 °F 84% 29.74 in 3.7 mi SSE 6.9 mph - N/A   Partly Cloudy
8:30 PM 84 °F - 79 °F 81% 29.80 in 2 mi South 2.3 mph - -   Clear
8:40 PM 84.2 °F 96.1 °F 78.8 °F 84% 29.77 in 3.7 mi South 2.3 mph - N/A   Partly Cloudy
9:10 PM 84.2 °F 96.1 °F 78.8 °F 84% 29.77 in 3.7 mi South 6.9 mph - N/A   Partly Cloudy
9:40 PM 84.2 °F 96.1 °F 78.8 °F 84% 29.77 in 3.7 mi South 9.2 mph - N/A   Partly Cloudy
10:10 PM 84.2 °F 96.1 °F 78.8 °F 84% 29.80 in 3.7 mi SSE 6.9 mph - N/A   Partly Cloudy
10:40 PM 84.2 °F 96.1 °F 78.8 °F 84% 29.77 in 3.7 mi SSE 6.9 mph - N/A   Partly Cloudy
11:10 PM 84.2 °F 96.1 °F 78.8 °F 84% 29.77 in 3.7 mi SSE 10.4 mph - N/A   Scattered Clouds
11:30 PM 84 °F - 80 °F 83% 29.81 in 2 mi SSE 3.5 mph - -   Partly Cloudy
11:40 PM 84.2 °F 96.1 °F 78.8 °F 84% 29.77 in 3.7 mi South 10.4 mph - N/A   Partly Cloudy